Lid_Strength_Index
3 3 3 2 2 2 2 2 3 3 3 3 3 3 4 4 3 6 10 7 6 4 5 8 10 10 11 12 12 14 18 19 17 17 16 14 15 13 12 13 13 12 13 12 12
3 3 3 3 3 3 3 3 3 3 3 3 4 4 3 3 7 9 6 5 6 5 9 11 12 11 13 13 13 15 18 16 15 16 16 15 15 15 15 14 14 13 12 12 11
3 3 3 3 3 3 3 3 3 3 3 4 3 4 4 4 9 10 6 6 6 6 8 10 10 11 13 13 14 14 16 15 14 13 13 14 15 14 15 15 14 14 13 12 12
3 3 3 3 3 3 3 3 3 3 3 3 4 4 3 6 15 9 7 7 6 7 9 10 12 14 14 15 13 17 14 14 12 12 13 15 14 15 14 14 12 12 12 12 12
3 3 3 2 2 2 3 3 3 3 4 3 4 4 6 11 11 7 6 7 8 9 11 11 13 14 15 15 14 16 14 13 13 13 14 13 14 15 14 12 12 12 11 12 13
3 3 3 3 3 3 3 3 3 4 4 4 5 4 9 13 9 8 8 8 9 10 11 11 13 13 14 15 16 14 14 14 13 13 13 14 15 15 14 13 13 12 13 12 13
3 3 3 3 2 2 3 3 4 4 4 4 5 6 10 12 10 9 9 9 9 9 11 11 11 13 13 15 13 14 16 14 13 13 14 14 16 16 13 13 14 14 13 13 13
2 3 2 2 2 2 3 4 5 4 4 5 5 8 14 9 11 9 9 10 9 9 10 10 10 12 13 13 14 17 17 19 14 14 14 14 19 15 14 14 14 14 14 13 13
2 3 2 2 2 2 4 5 5 4 5 5 8 11 14 8 11 10 10 11 10 10 10 10 11 14 14 17 19 18 20 19 17 14 15 15 18 14 14 14 15 14 14 14 14
2 2 2 2 2 2 3 5 5 5 6 7 9 13 12 12 11 10 10 10 11 11 11 12 14 17 18 19 24 20 21 19 19 16 15 16 17 15 13 14 14 15 14 15 15
2 1 1 2 2 2 6 8 11 12 11 12 12 12 11 11 9 10 10 11 11 13 17 14 18 19 18 17 17 18 20 20 17 14 17 17 17 15 14 13 14 15 15 16 17
2 2 1 1 2 3 7 11 11 12 14 10 11 11 10 10 13 11 10 14 14 17 16 17 19 16 15 15 17 18 20 20 17 15 17 17 17 15 14 14 14 15 16 17 17
3 3 2 1 2 7 10 10 8 8 14 12 12 12 11 11 13 13 11 13 15 16 16 18 16 15 16 17 18 19 19 19 19 18 17 18 20 19 16 15 15 15 15 16 17
3 3 2 2 5 8 10 7 6 7 16 14 14 12 11 12 14 11 11 13 15 17 17 17 15 16 17 18 18 21 17 18 18 22 23 18 25 19 17 16 16 15 16 17 18
3 3 2 4 6 8 7 6 6 8 20 14 14 10 11 14 14 13 11 13 17 16 17 18 17 18 19 18 17 20 17 18 18 23 23 21 27 21 18 18 17 16 17 18 18
3 2 2 4 6 7 6 6 7 14 19 15 14 14 15 13 13 13 13 13 13 16 16 17 15 16 17 16 17 17 17 17 19 20 25 23 22 21 21 20 18 17 17 18 18
2 3 4 5 8 5 6 8 13 17 12 16 16 14 15 16 15 14 15 16 18 17 18 17 18 17 16 18 17 18 20 28 27 24 26 19 21 19 19 18 19 20 19 20 18
2 4 5 6 5 5 6 10 17 16 13 13 14 15 15 15 15 14 15 17 15 16 19 20 20 19 17 18 19 19 21 25 30 29 26 18 25 19 20 22 23 22 22 18 19
2 4 5 6 5 5 7 16 17 13 12 13 12 15 16 16 16 15 17 17 16 16 20 21 20 18 18 17 17 18 21 19 27 28 24 24 20 17 18 20 22 23 18 20 21
4 6 7 5 6 6 11 15 12 13 12 12 14 14 15 17 17 17 17 16 17 16 16 19 24 18 19 17 16 17 17 23 24 30 31 25 23 21 22 22 22 23 22 22 21
4 8 7 6 6 8 12 13 12 11 11 13 14 14 16 16 16 16 16 16 15 16 16 18 21 20 19 23 21 20 21 20 21 23 29 28 24 22 22 24 23 22 20 23 23
4 11 7 6 11 12 12 11 10 12 12 13 14 15 16 15 16 16 16 16 14 15 18 17 20 21 21 21 18 18 23 22 25 26 27 26 23 25 24 26 25 22 20 23 22
8 8 7 6 15 12 11 12 12 13 13 13 14 13 15 17 18 16 16 15 14 16 17 17 19 23 21 19 19 23 20 21 23 24 27 27 24 25 27 24 23 24 26 23 22
8 12 10 9 10 11 12 12 12 11 12 11 12 12 15 18 16 18 17 15 15 15 15 16 19 21 22 21 23 25 24 20 21 29 28 24 23 19 23 26 26 26 26 28 28
7 11 11 12 12 11 12 11 12 13 12 11 14 15 15 19 18 19 16 16 15 15 16 18 21 23 21 21 26 26 26 22 22 25 23 26 28 20 18 24 27 29 30 28 29
9 10 10 11 11 11 11 12 12 11 11 13 14 12 13 17 16 17 17 17 17 16 17 18 21 22 23 26 28 27 25 23 20 27 23 21 20 22 28 30 28 28 30 29 29
6 6 7 10 11 12 12 12 12 11 10 9 11 13 15 14 14 14 14 16 17 17 18 19 20 23 25 24 24 25 26 25 26 28 24 25 21 28 24 27 27 27 28 28 29